RH
60 65 71 76 79 77 72 72 62 81 87 77 77 76 79 78 77 81 87 96 100 100 98 99 100 100 97 100 99 100 100 99 100 99 98 80 87 95
54 59 57 58 65 76 75 69 64 66 79 78 71 65 65 61 59 62 69 70 66 79 91 99 99 95 97 95 100 98 97 99 91 100 98 99 92 90
53 51 62 72 81 82 82 78 77 71 71 74 74 76 74 69 67 66 63 61 60 54 57 54 53 63 92 89 92 88 95 89 95 92 95 100 96 90
68 60 66 88 89 88 86 80 76 67 70 72 72 73 73 72 75 75 72 68 63 63 62 64 67 55 54 64 79 92 90 98 98 100 93 100 100 89
76 78 72 78 82 92 76 82 77 75 72 74 73 78 80 79 77 80 82 81 79 78 74 70 69 66 56 53 53 80 99 91 98 96 100 100 100 94
92 94 82 86 84 73 72 76 73 80 86 88 88 92 88 89 93 92 87 88 86 87 87 73 79 75 71 62 56 58 59 88 99 99 100 100 100 99
90 96 92 88 93 91 83 82 86 87 89 91 93 98 97 97 95 94 91 92 93 95 93 79 78 77 72 71 67 65 63 63 83 98 100 100 99 99
100 95 98 99 100 100 99 98 96 98 99 96 94 98 96 96 97 100 100 100 99 98 98 90 83 75 75 74 71 70 68 66 70 81 92 99 100 100
100 97 92 94 99 90 97 100 100 98 98 95 100 99 100 90 94 99 99 100 99 99 100 97 86 79 71 69 66 70 71 70 71 76 87 98 100 100
99 85 77 73 90 96 94 99 100 100 99 98 99 95 91 96 86 97 99 100 100 100 100 99 88 73 74 76 78 77 79 80 79 83 87 95 100 100
98 78 76 79 86 91 96 100 100 97 92 99 94 98 99 97 100 100 99 99 99 99 98 99 80 80 79 81 81 80 82 88 91 93 99 100 100 100
98 87 82 82 90 99 99 97 95 89 94 99 99 100 100 100 100 100 100 100 100 100 96 94 88 85 91 79 81 83 89 97 98 100 100 100 100 100
99 86 78 82 89 94 99 99 91 84 98 95 100 98 100 100 100 100 100 100 100 100 98 96 96 91 94 97 92 93 93 98 98 100 100 100 100 99
94 86 80 87 88 86 85 98 100 100 100 100 100 99 100 100 100 100 100 100 100 97 100 100 96 94 100 96 96 97 98 99 100 100 100 100 100 99
91 84 81 83 88 97 100 100 100 100 94 97 98 99 99 100 100 100 100 100 100 100 100 100 100 100 100 99 99 99 100 99 99 100 100 100 100 100
98 93 87 96 100 99 100 100 100 99 100 100 100 100 100 100 99 99 100 100 100 100 99 100 100 100 100 100 100 100 99 99 98 99 99 99 100 99
100 100 100 100 100 100 99 100 100 100 99 99 100 100 99 99 99 100 100 100 100 100 100 100 100 100 100 100 99 100 100 100 100 100 100 99 99 99
100 100 100 100 100 100 100 100 100 100 100 100 100 100 100 100 100 100 99 100 99 100 99 100 100 100 100 99 100 99 100 100 100 100 100 97 96 81
100 100 100 100 100 100 100 100 100 100 100 100 100 100 100 100 100 100 100 100 100 100 100 100 100 100 100 100 98 97 99 100 100 99 99 98 94 63
98 98 98 98 98 99 99 99 100 100 100 100 100 100 100 100 100 100 100 100 100 100 100 100 100 100 100 100 100 95 96 98 99 98 98 96 74 55
97 97 97 98 98 98 98 99 99 99 99 99 99 99 99 99 100 100 100 100 100 100 100 100 100 99 99 98 96 92 95 97 97 98 96 93 89 85
96 96 96 97 97 97 98 98 98 98 98 98 98 98 98 99 98 98 98 98 98 98 98 98 98 97 97 98 96 98 97 98 97 96 96 94 92 88
95 96 96 96 96 96 97 97 97 97 97 97 97 97 97 97 97 97 97 97 97 97 97 97 97 97 97 96 96 94 94 94 94 93 91 95 93 90
Wind_Speed
39 38 40 40 39 34 30 27 20 23 26 23 21 19 19 24 30 30 29 29 30 30 30 28 27 27 25 25 26 29 26 24 27 24 21 19 18 18
37 37 37 37 37 41 38 35 32 27 26 24 22 18 17 18 18 21 24 24 26 29 31 31 32 28 27 28 29 28 26 26 27 29 27 24 21 21
38 37 38 35 33 32 33 33 31 30 32 25 21 18 18 19 17 18 17 19 22 20 19 20 23 25 29 31 31 31 32 29 31 30 27 31 23 23
41 38 40 38 36 33 32 32 31 31 31 31 28 26 24 23 21 22 22 20 20 20 21 23 24 23 25 28 31 34 33 35 35 27 26 33 32 23
44 42 40 42 39 38 36 34 33 33 31 30 29 27 27 27 27 28 27 28 29 25 24 25 24 24 24 24 26 30 33 30 35 30 32 30 36 30
41 41 42 41 39 42 41 39 36 35 33 32 32 30 30 29 30 31 33 34 32 29 26 25 25 25 25 25 25 26 26 30 32 31 30 28 30 29
42 44 45 44 42 41 40 37 38 37 37 36 36 37 34 34 34 33 33 35 35 34 30 27 27 25 25 26 27 26 26 27 27 28 29 28 28 29
47 47 44 43 40 41 39 39 39 36 36 38 40 40 34 34 32 33 34 38 39 36 34 29 25 27 26 25 25 26 25 24 24 25 26 28 30 30
44 44 37 40 35 36 35 35 35 32 33 35 37 37 32 30 30 30 32 36 37 35 31 25 24 22 21 24 24 26 25 25 25 26 27 29 29 28
40 37 35 36 35 36 33 31 32 32 35 33 32 30 31 30 31 30 29 27 29 29 28 27 23 21 20 20 21 23 24 24 25 26 27 27 27 26
36 33 31 29 31 28 29 31 30 32 32 31 31 29 29 32 31 29 26 25 25 28 27 25 23 23 22 22 21 23 25 25 25 25 23 23 24 25
35 32 31 30 29 29 32 32 32 33 30 32 34 35 33 32 29 28 27 28 28 27 25 24 20 22 23 23 23 18 17 24 27 25 22 22 24 26
38 35 34 32 30 31 32 35 36 33 34 35 34 31 33 32 30 29 27 27 25 24 20 19 20 19 21 20 19 16 15 15 18 20 21 22 23 25
36 33 33 31 32 32 35 36 33 32 32 32 30 30 30 28 28 28 26 25 23 22 24 24 26 25 22 23 22 21 18 17 18 19 22 23 25 26
32 30 31 32 32 32 32 31 30 28 28 30 31 30 28 26 26 24 24 25 25 27 28 27 26 25 26 24 22 19 18 17 17 18 20 23 25 24
30 29 30 29 30 30 28 28 29 28 28 27 23 21 22 23 23 22 25 25 22 24 25 25 23 24 23 22 21 18 17 15 15 16 18 21 22 22
32 31 32 33 33 32 32 30 30 29 27 26 25 24 24 23 24 25 24 21 19 17 18 19 19 18 18 18 19 17 17 18 18 18 18 17 19 20
27 29 32 34 34 33 32 32 31 30 29 28 27 25 25 23 21 18 16 16 16 15 16 16 16 14 13 13 15 16 17 20 19 18 18 20 19 17
24 23 22 21 21 21 22 22 22 21 22 21 21 20 19 17 16 14 15 14 14 14 14 14 13 12 13 14 14 16 17 20 19 20 20 22 20 17
29 27 25 22 20 19 17 17 17 17 18 17 15 15 14 13 13 13 12 11 11 11 11 11 11 11 12 14 15 17 16 16 18 19 20 19 20 21
27 27 25 24 22 21 19 17 15 13 12 12 11 10 10 10 10 10 10 10 10 10 10 10 11 14 14 15 17 17 17 17 18 19 19 19 20 23
23 21 20 20 19 19 19 18 17 16 14 12 11 8 6 4 4 4 5 5 6 8 9 10 11 13 14 15 15 17 18 19 20 21 20 21 21 18
18 16 16 14 13 12 11 11 10 9 7 6 5 4 2 1 1 3 4 6 8 10 11 12 13 14 15 16 17 18 19 20 21 21 21 22 23 25
Wind_Direction
220 219 222 223 221 220 221 214 224 213 222 225 226 224 227 233 237 238 240 245 246 250 250 250 250 253 259 256 257 254 255 257 263 273 276 285 284 291
219 219 221 224 223 224 225 229 238 233 225 229 232 231 237 241 236 236 241 246 249 249 249 249 249 253 251 255 257 258 255 260 266 263 273 273 280 284
216 218 221 223 222 223 224 227 227 228 232 228 237 237 231 237 237 240 246 252 251 250 253 256 254 254 251 256 253 259 253 260 262 268 273 263 271 282
218 215 219 222 224 225 226 224 224 227 231 236 235 236 241 249 253 258 263 262 261 257 262 264 258 257 256 255 250 252 256 261 273 258 268 267 253 282
217 217 220 221 224 228 229 229 231 231 233 238 241 240 243 247 254 258 262 266 268 268 271 270 262 259 259 261 261 255 255 256 265 268 258 264 253 272
224 227 222 224 222 228 230 233 235 235 237 241 247 246 240 243 247 252 257 257 263 264 267 268 260 258 258 259 261 266 269 257 256 262 267 265 256 266
223 231 227 229 228 230 231 231 235 236 238 240 243 245 244 245 247 254 256 262 264 266 263 259 261 264 261 261 263 265 266 265 256 254 254 253 257 261
225 229 231 230 231 232 239 236 241 240 243 242 243 247 250 251 254 254 258 257 260 264 258 262 259 259 260 260 263 264 262 260 257 254 253 253 255 260
223 225 228 236 233 238 241 238 235 239 243 247 248 254 249 253 258 263 265 261 263 259 260 259 259 257 259 264 263 260 260 258 254 252 252 253 257 259
218 222 227 230 233 232 234 234 236 240 243 247 249 246 255 259 266 267 266 264 261 255 252 254 253 262 266 264 263 264 262 261 259 261 259 257 257 256
215 217 225 230 232 231 237 235 240 243 246 248 254 255 257 259 256 262 253 244 243 242 242 247 253 260 266 272 272 273 272 268 263 266 263 254 252 254
215 218 224 231 230 228 234 236 242 247 246 248 250 251 256 254 255 253 246 241 241 244 239 240 248 264 270 270 273 269 274 267 262 262 257 250 250 252
216 217 225 228 233 234 239 243 246 248 247 248 246 249 254 251 247 245 242 239 236 237 239 245 256 260 265 259 272 273 274 266 257 256 251 253 251 256
218 223 230 232 237 240 246 243 240 243 242 241 242 245 242 237 235 234 235 231 233 243 250 252 258 265 261 267 268 268 263 265 260 254 249 253 255 255
222 229 239 238 238 241 234 239 235 231 235 237 238 236 235 231 229 227 230 237 246 250 249 253 256 249 256 257 259 259 262 265 263 257 253 250 252 258
224 226 230 230 227 232 227 228 228 231 226 223 218 219 220 223 224 229 234 238 241 248 248 249 247 252 253 252 253 254 259 258 259 267 261 252 253 253
219 219 217 218 222 221 217 216 214 213 217 217 215 217 220 221 229 230 230 230 238 244 244 246 242 244 247 251 252 254 257 258 261 258 257 258 255 254
205 205 204 204 204 207 208 207 207 208 210 214 216 216 216 210 208 213 221 226 231 233 237 237 236 232 240 254 260 260 265 266 261 254 259 260 259 257
142 134 138 147 156 168 174 182 185 186 190 189 191 191 195 197 201 208 216 221 226 228 228 226 232 242 252 260 273 273 270 266 261 260 262 262 265 258
99 103 106 110 114 124 134 142 147 152 159 166 169 174 180 186 193 198 202 209 217 226 233 239 249 262 267 269 271 271 272 269 265 262 261 260 261 261
81 86 91 98 104 108 110 112 117 124 132 143 151 162 172 180 189 199 208 216 225 231 238 249 256 260 266 267 267 275 277 275 273 268 266 265 265 265
68 70 74 80 87 93 101 107 110 110 108 107 107 110 121 144 173 198 214 227 241 248 252 255 261 267 267 269 273 273 275 274 272 271 268 263 265 266
62 62 63 63 67 72 77 82 85 87 91 97 105 119 138 172 237 268 269 267 268 269 268 269 269 270 273 277 278 278 278 278 279 278 276 271 268 267